Location: Escondida
(34.1015°N, 106.8964°W)
Time: 14:38:01
(UTC+00:00)

BlueWalker 3 - Pass Details

Date: 19 February 2026
Orbit: 451 x 457 km, 53.2° (Epoch: 14 March)

Event Time Altitude Azimuth Distance (km) Brightness Sun altitude
Rises 12:46:40 0° 176° (S) 2,457 5.6 -13.4°
Reaches altitude 10° 12:50:24 10° 136° (SE) 1,589 5.2 -12.6°
Maximum altitude 12:51:11 11° 123° (ESE) 1,554 5.5 -12.4°
Drops below altitude 10° 12:51:59 10° 110° (ESE) 1,591 5.8 -12.3°
Sets 12:55:43 0° 70° (ENE) 2,468 6.7 -11.5°
